Location: Emporia
(38.4040°N, 96.1810°W)
Time: 07:56:51
(UTC-06:00)

Amateur Radio Satellites - All Passes

Search period start: 30 January 2015 07:26
Search period end: 31 January 2015 07:26
Location: Emporia, 38.4040°N, 96.1810°W

Satellite Date Start Highest point End Downlink Frequencies (MHz)
Time Altitude Azimuth
STRAND 1 30 Jan 07:50:44 07:54:03 17° 269° (W) 07:57:10 437.568
VERMONT LUNAR 30 Jan 07:50:45 07:53:44 27° 151° (SSE) 07:56:45 437.305
CANX-2 30 Jan 08:21:30 08:24:23 18° 92° (E) 08:27:22 2200.000
AAUSAT CUBESAT 2 30 Jan 08:30:40 08:32:13 12° 89° (E) 08:34:01 437.432
Cubesat XI-IV 30 Jan 08:39:34 08:40:57 11° 299° (WNW) 08:41:59 437.490
CUTE 1.7 + AOD 2 30 Jan 08:44:51 08:48:34 30° 96° (E) 08:52:20 437.475
GOMX 1 30 Jan 08:48:42 08:53:42 39° 95° (E) 08:58:30 467.674
Oscar 11 30 Jan 08:52:48 08:53:13 10° 88° (E) 08:53:57 145.826/435.025
UNISAT 6 30 Jan 08:54:09 08:55:33 11° 64° (ENE) 08:57:13 437.425
PHONESAT 2.4 30 Jan 08:55:24 08:58:50 44° 156° (SSE) 09:02:18 2401.200-2431.200
HO-68 30 Jan 08:55:39 09:02:32 50° 100° (E) 09:09:28 435.675
DOVE 4 30 Jan 08:56:08 09:00:43 32° 94° (E) 09:05:07 437.250
BRITE-PL 30 Jan 08:58:22 09:04:03 71° 100° (E) 09:09:26 437.365/2234.400
YUBILEINY 30 Jan 09:10:48 09:16:09 17° 280° (W) 09:20:57 435.215
SEEDS 30 Jan 09:13:42 09:17:50 57° 100° (E) 09:21:57 437.485
SO-50 30 Jan 09:22:54 09:26:15 21° 111° (ESE) 09:29:50 436.795
RS-15 30 Jan 09:23:48 09:30:22 17° 353° (N) 09:36:55 29.354- 29.394
UKube-1 30 Jan 09:27:07 09:29:27 14° 91° (E) 09:31:58 .
ANTELSAT 30 Jan 09:27:32 09:31:22 26° 70° (ENE) 09:35:18 437.575/2403.000
VERMONT LUNAR 30 Jan 09:28:09 09:31:38 83° 343° (NNW) 09:35:09 437.305
NANOSAT C BR1 30 Jan 09:33:17 09:35:47 16° 67° (ENE) 09:38:29 145.865
TIGRISAT 30 Jan 09:34:24 09:38:26 30° 70° (ENE) 09:42:32 435.000
COMPASS 1 30 Jan 09:38:38 09:42:50 86° 283° (WNW) 09:46:58 437.405
CUBEBUG 2 30 Jan 09:40:19 09:44:10 27° 94° (E) 09:47:58 437.445
ZACube-1 30 Jan 09:43:27 09:46:38 20° 92° (E) 09:49:53 437.345
QB50P2 30 Jan 09:47:20 09:50:41 23° 69° (ENE) 09:54:07 145.880/145.840
DX 1 30 Jan 09:48:11 09:51:53 27° 96° (E) 09:55:38 434.975-435.025
DELFI C3 30 Jan 09:53:08 09:56:59 43° 98° (E) 10:00:51 145.870
FUNcube-1 30 Jan 09:54:40 09:58:21 26° 94° (E) 10:02:00 145.935
QB50P1 30 Jan 09:55:57 09:59:34 28° 71° (ENE) 10:03:16 145.935-145.965
CANX-2 30 Jan 09:56:38 10:00:28 33° 288° (WNW) 10:04:14 2200.000
BUGSAT 1 30 Jan 10:02:09 10:05:26 24° 70° (ENE) 10:08:50 437.445
AAUSAT CUBESAT 2 30 Jan 10:04:14 10:08:15 48° 286° (WNW) 10:12:14 437.432
POLYITAN 1 30 Jan 10:11:01 10:15:04 42° 72° (ENE) 10:19:11 437.675
CINEMA 3 30 Jan 10:11:56 10:16:47 74° 283° (WNW) 10:21:22 145.822/145.860
UWE-3 30 Jan 10:17:33 10:22:00 61° 100° (E) 10:26:18 435.000/436.395/437.385
AISAT 30 Jan 10:18:15 10:21:42 22° 94° (E) 10:25:15 437.250
CUTE 1.7 + AOD 2 30 Jan 10:21:12 10:24:22 20° 291° (WNW) 10:27:25 437.475
Oscar 11 30 Jan 10:25:39 10:29:54 61° 286° (WNW) 10:34:08 145.826/435.025
ESTCUBE 1 30 Jan 10:26:38 10:27:43 11° 89° (E) 10:29:05 437.505/2401.250
UNISAT 6 30 Jan 10:27:06 10:31:50 75° 259° (W) 10:36:33 437.425
GOMX 1 30 Jan 10:27:12 10:31:36 25° 293° (WNW) 10:35:44 467.674
AIST 1 30 Jan 10:29:35 10:31:58 15° 88° (E) 10:34:33
POPSAT HIP 1 30 Jan 10:30:12 10:34:27 70° 76° (ENE) 10:38:45 437.405
DUCHIFAT 1 30 Jan 10:32:10 10:36:25 73° 76° (ENE) 10:40:43 145.980
PHONESAT 2.4 30 Jan 10:33:45 10:37:21 68° 351° (N) 10:40:59 2401.200-2431.200
DOVE 4 30 Jan 10:33:59 10:38:22 28° 292° (WNW) 10:42:30 437.250
BEESAT 2 30 Jan 10:36:30 10:40:05 27° 50° (NE) 10:43:40 435.950
BRITE-PL 30 Jan 10:38:29 10:41:56 16° 296° (WNW) 10:45:05 437.365/2234.400
50 SAT 30 Jan 10:38:37 10:42:15 32° 96° (E) 10:45:52 437.505
AIST 2 30 Jan 10:39:08 10:41:26 14° 43° (NE) 10:43:52 435.215
HO-68 30 Jan 10:43:54 10:50:01 31° 296° (WNW) 10:55:59 435.675
VELOX 1 30 Jan 10:45:17 10:49:33 42° 98° (E) 10:53:50 145.980
BEESAT 3 30 Jan 10:49:13 10:53:09 40° 54° (NE) 10:57:03 437.485
CUBEBUG 1 30 Jan 10:50:54 10:54:06 20° 93° (E) 10:57:24 437.445
SEEDS 30 Jan 10:51:43 10:53:14 11° 294° (WNW) 10:54:32 437.485
UKube-1 30 Jan 11:01:44 11:05:55 45° 287° (WNW) 11:10:04 .
SO-50 30 Jan 11:02:15 11:06:34 40° 308° (NW) 11:11:01 436.795
ANTELSAT 30 Jan 11:03:54 11:08:05 30° 265° (W) 11:12:12 437.575/2403.000
VERMONT LUNAR 30 Jan 11:06:28 11:09:55 59° 3° (N) 11:13:24 437.305
NANOSAT C BR1 30 Jan 11:07:18 11:11:22 42° 262° (W) 11:15:27 145.865
TIGRISAT 30 Jan 11:11:11 11:15:11 26° 265° (W) 11:19:06 435.000
HUMSAT D 30 Jan 11:12:36 11:16:50 69° 284° (WNW) 11:20:58 437.325/437.525
CUBEBUG 2 30 Jan 11:17:02 11:20:48 25° 291° (WNW) 11:24:23 437.445
GONETS M04 30 Jan 11:18:53 11:25:18 23° 65° (ENE) 11:32:03
ZACube-1 30 Jan 11:19:11 11:23:09 32° 289° (WNW) 11:26:58 437.345
QB50P2 30 Jan 11:22:46 11:26:30 28° 265° (W) 11:30:12 145.880/145.840
DX 1 30 Jan 11:24:25 11:28:05 25° 291° (WNW) 11:31:39 434.975-435.025
DELFI C3 30 Jan 11:29:45 11:31:55 14° 293° (WNW) 11:33:54 145.870
FUNcube-1 30 Jan 11:31:01 11:34:39 25° 290° (WNW) 11:38:07 145.935
QB50P1 30 Jan 11:32:02 11:35:29 23° 266° (W) 11:38:51 145.935-145.965
BUGSAT 1 30 Jan 11:37:29 11:40:53 24° 265° (W) 11:44:15 437.445
RS-15 30 Jan 11:39:57 11:48:28 24° 28° (NNE) 11:57:32 29.354- 29.394
POLYITAN 1 30 Jan 11:48:39 11:51:16 15° 269° (W) 11:53:45 437.675
AISAT 30 Jan 11:54:22 11:58:24 32° 289° (WNW) 12:02:23 437.250
UWE-3 30 Jan 11:56:10 11:58:03 12° 295° (WNW) 11:59:42 435.000/436.395/437.385
ESTCUBE 1 30 Jan 12:00:37 12:05:08 64° 284° (WNW) 12:09:35 437.505/2401.250
AIST 1 30 Jan 12:05:24 12:09:22 37° 282° (WNW) 12:13:20
SPROUT 30 Jan 12:07:01 12:10:55 32° 96° (E) 12:14:50 437.525
PHONESAT 2.4 30 Jan 12:12:30 12:16:07 68° 8° (N) 12:19:45 2401.200-2431.200
50 SAT 30 Jan 12:14:22 12:17:11 18° 291° (WNW) 12:19:51 437.505
BEESAT 2 30 Jan 12:14:43 12:18:15 26° 247° (WSW) 12:21:41 435.950
AIST 2 30 Jan 12:16:19 12:20:34 66° 242° (WSW) 12:24:43 435.215
VELOX 1 30 Jan 12:22:50 12:25:52 18° 293° (WNW) 12:28:45 145.980
PCSat 30 Jan 12:24:53 12:28:46 20° 47° (NE) 12:32:47 145.827
Oscar 19 30 Jan 12:25:27 12:30:03 34° 70° (ENE) 12:34:44 437.125/150
CUBEBUG 1 30 Jan 12:26:32 12:30:36 35° 288° (WNW) 12:34:37 437.445
BEESAT 3 30 Jan 12:28:17 12:31:01 17° 249° (WSW) 12:33:35 437.485
TISAT 1 30 Jan 12:39:37 12:43:57 76° 102° (ESE) 12:48:13 437.305
VERMONT LUNAR 30 Jan 12:44:37 12:48:06 67° 200° (SSW) 12:51:36 437.305
ITAMSAT 1 30 Jan 12:45:38 12:49:03 19° 65° (ENE) 12:52:41 435.822/435.867
GONETS M04 30 Jan 13:14:27 13:23:06 71° 266° (W) 13:31:42
AO-7 30 Jan 13:29:51 13:33:25 14° 50° (NE) 13:37:28 29.400- 29.500
SWISSCUBE 30 Jan 13:38:48 13:43:28 50° 100° (E) 13:48:07 437.505
SPROUT 30 Jan 13:43:33 13:46:51 21° 291° (WNW) 13:50:01 437.525
Gurwin Techsat 1B 30 Jan 13:48:17 13:53:21 49° 72° (ENE) 13:58:30 435.225
PHONESAT 2.4 30 Jan 13:51:09 13:54:39 44° 204° (SSW) 13:58:07 2401.200-2431.200
RS-15 30 Jan 13:52:06 14:03:28 71° 55° (NE) 14:15:23 29.354- 29.394
BEESAT 30 Jan 13:54:17 13:59:04 68° 102° (ESE) 14:03:49 436.000
KKS-1 30 Jan 13:56:11 13:57:56 12° 89° (E) 13:59:56 437.445
ITUPSAT 1 30 Jan 13:58:59 14:03:47 74° 103° (ESE) 14:08:35 437.325
Oscar 19 30 Jan 14:05:02 14:09:27 27° 265° (W) 14:13:48 437.125/150
PCSat 30 Jan 14:07:19 14:12:41 62° 246° (WSW) 14:18:00 145.827
ITAMSAT 1 30 Jan 14:23:11 14:28:12 51° 260° (W) 14:33:17 435.822/435.867
VERMONT LUNAR 30 Jan 14:23:37 14:25:51 16° 214° (SSW) 14:28:01 437.305
HORYU 2 30 Jan 14:41:09 14:45:29 49° 73° (ENE) 14:49:50 437.375
DANDE 30 Jan 14:52:04 14:57:48 33° 68° (ENE) 15:02:17 436.750
CUSAT 1 30 Jan 15:13:55 15:19:52 62° 77° (ENE) 15:24:13 437.405
GONETS M04 30 Jan 15:16:07 15:18:35 11° 283° (WNW) 15:20:16
AO-7 30 Jan 15:16:36 15:24:49 65° 68° (ENE) 15:33:06 29.400- 29.500
SWISSCUBE 30 Jan 15:17:53 15:21:00 17° 294° (WNW) 15:23:56 437.505
STARS 30 Jan 15:21:05 15:25:33 75° 102° (ESE) 15:29:58 437.465
M-CUBED/EXP-1 PRIME 30 Jan 15:29:03 15:31:54 26° 102° (ESE) 15:34:53 437.505
Gurwin Techsat 1B 30 Jan 15:29:53 15:33:40 19° 269° (W) 15:37:17 435.225
KKS-1 30 Jan 15:30:36 15:35:01 56° 287° (WNW) 15:39:23 437.445
BEESAT 30 Jan 15:34:12 15:36:25 13° 296° (WNW) 15:38:23 436.000
JAS-2 30 Jan 15:35:42 15:40:23 31° 70° (ENE) 15:44:57 435.910
ITUPSAT 1 30 Jan 15:39:18 15:41:09 12° 297° (WNW) 15:42:44 437.325
AUBIESAT-1 30 Jan 16:00:43 16:04:02 65° 106° (ESE) 16:07:30 437.475
RS-15 30 Jan 16:05:31 16:15:15 32° 253° (WSW) 16:24:54 29.354- 29.394
O/OREOS (USA 219) 30 Jan 16:17:36 16:22:05 86° 291° (WNW) 16:26:38 437.305
HORYU 2 30 Jan 16:19:58 16:22:29 14° 269° (W) 16:24:48 437.375
DANDE 30 Jan 16:35:52 16:41:04 27° 275° (W) 16:45:03 436.750
Cubesat XI-IV 30 Jan 16:39:13 16:42:29 17° 64° (ENE) 16:45:59 437.490
CUTE-I 30 Jan 16:57:42 17:01:54 25° 67° (ENE) 17:06:14 437.470
CUSAT 1 30 Jan 16:59:27 17:01:43 12° 281° (W) 17:03:30 437.405
STARS 30 Jan 17:00:44 17:01:30 10° 296° (WNW) 17:01:59 437.465
M-CUBED/EXP-1 PRIME 30 Jan 17:04:43 17:06:48 15° 295° (WNW) 17:08:47 437.505
AO-7 30 Jan 17:11:26 17:18:15 26° 267° (W) 17:24:48 29.400- 29.500
MOZHAYETS 4 30 Jan 17:19:38 17:24:13 85° 102° (ESE) 17:28:49
JAS-2 30 Jan 17:20:47 17:25:34 29° 264° (W) 17:30:02 435.910
SO-50 30 Jan 17:55:19 17:58:34 18° 43° (NE) 18:01:58 436.795
Cubesat XI-IV 30 Jan 18:16:55 18:22:09 60° 259° (W) 18:27:27 437.490
YUBILEINY 30 Jan 18:17:19 18:22:49 20° 81° (E) 18:28:48 435.215
STRAND 1 30 Jan 18:22:27 18:26:07 20° 92° (E) 18:29:57 437.568
JUGNU 30 Jan 18:35:28 18:37:43 12° 180° (S) 18:39:58 437.505
CUTE-I 30 Jan 18:36:50 18:41:48 39° 262° (W) 18:46:46 437.470
PRISM 30 Jan 18:40:58 18:45:06 62° 102° (ESE) 18:49:13 437.425
CANX-2 30 Jan 19:14:46 19:16:22 12° 66° (ENE) 19:18:12 2200.000
CUBESAT XI-V 30 Jan 19:16:19 19:21:02 76° 284° (WNW) 19:25:44 437.345
SRMSAT 30 Jan 19:18:59 19:20:57 12° 175° (S) 19:22:58 437.500
HO-68 30 Jan 19:23:05 19:29:10 33° 64° (ENE) 19:35:25 435.675
SO-50 30 Jan 19:34:45 19:39:40 68° 242° (WSW) 19:44:32 436.795
CUTE 1.7 + AOD 2 30 Jan 19:37:06 19:40:09 20° 69° (ENE) 19:43:20 437.475
GOMX 1 30 Jan 19:54:53 19:59:30 36° 70° (ENE) 20:04:24 467.674
DOVE 4 30 Jan 19:59:59 20:04:17 29° 69° (ENE) 20:08:49 437.250
STRAND 1 30 Jan 20:00:40 20:05:35 45° 289° (WNW) 20:10:26 437.568
SEEDS 30 Jan 20:04:40 20:08:29 33° 72° (ENE) 20:12:20 437.485
BRITE-PL 30 Jan 20:07:08 20:12:08 66° 75° (ENE) 20:17:35 437.365/2234.400
YUBILEINY 30 Jan 20:10:06 20:18:47 78° 279° (W) 20:27:32 435.215
ISS 30 Jan 20:13:14 20:14:47 13° 129° (SE) 20:16:27 145.825
PRISM 30 Jan 20:19:01 20:20:10 11° 295° (WNW) 20:21:06 437.425
UKube-1 30 Jan 20:22:23 20:23:36 11° 64° (ENE) 20:25:04 .
COMPASS 1 30 Jan 20:28:34 20:32:40 52° 75° (ENE) 20:36:48 437.405
CUBEBUG 2 30 Jan 20:37:19 20:40:54 22° 68° (ENE) 20:44:38 437.445
ZACube-1 30 Jan 20:38:48 20:41:27 16° 67° (ENE) 20:44:17 437.345
DELFI C3 30 Jan 20:40:31 20:43:44 23° 70° (ENE) 20:47:00 145.870
DX 1 30 Jan 20:43:03 20:46:11 20° 68° (ENE) 20:49:28 434.975-435.025
CANX-2 30 Jan 20:47:40 20:51:54 57° 260° (W) 20:56:09 2200.000
FUNcube-1 30 Jan 20:49:31 20:52:46 20° 68° (ENE) 20:56:10 145.935
AAUSAT CUBESAT 2 30 Jan 20:53:29 20:57:42 89° 257° (WSW) 21:01:55 437.432
SRMSAT 30 Jan 21:07:16 21:09:16 12° 185° (S) 21:11:14 437.500
HO-68 30 Jan 21:09:53 21:16:43 46° 261° (W) 21:23:32 435.675
CINEMA 3 30 Jan 21:11:24 21:16:20 84° 78° (ENE) 21:21:25 145.822/145.860
CUTE 1.7 + AOD 2 30 Jan 21:12:01 21:15:55 33° 264° (W) 21:19:47 437.475
UWE-3 30 Jan 21:12:57 21:17:22 43° 73° (ENE) 21:21:50 435.000/436.395/437.385
AISAT 30 Jan 21:15:42 21:18:34 18° 67° (ENE) 21:21:37 437.250
Oscar 11 30 Jan 21:18:39 21:22:59 84° 77° (ENE) 21:27:21 145.826/435.025
50 SAT 30 Jan 21:25:27 21:28:13 18° 69° (ENE) 21:31:07 437.505
GOMX 1 30 Jan 21:33:24 21:37:42 26° 268° (W) 21:42:07 467.674
DOVE 4 30 Jan 21:37:26 21:41:58 32° 266° (W) 21:46:38 437.250
SEEDS 30 Jan 21:41:22 21:44:26 19° 268° (W) 21:47:23 437.485
VELOX 1 30 Jan 21:41:54 21:45:48 32° 71° (ENE) 21:49:48 145.980
CUBEBUG 1 30 Jan 21:46:58 21:49:14 14° 66° (ENE) 21:51:41 437.445
ISS 30 Jan 21:47:43 21:50:57 57° 323° (NW) 21:54:12 145.825
BRITE-PL 30 Jan 21:48:34 21:51:21 14° 274° (W) 21:53:55 437.365/2234.400
UKube-1 30 Jan 21:55:00 21:59:17 65° 258° (WSW) 22:03:37 .
HUMSAT D 30 Jan 22:02:49 22:07:07 68° 76° (ENE) 22:11:28 437.325/437.525
COMPASS 1 30 Jan 22:07:10 22:08:47 12° 271° (W) 22:10:08 437.405
YUBILEINY 30 Jan 22:12:52 22:17:26 14° 301° (WNW) 22:21:24 435.215
ZACube-1 30 Jan 22:12:58 22:17:27 51° 261° (W) 22:21:58 437.345
CUBEBUG 2 30 Jan 22:13:00 22:17:24 37° 264° (W) 22:21:50 437.445
AIST 1 30 Jan 22:13:48 22:17:57 42° 78° (ENE) 22:22:08
DELFI C3 30 Jan 22:15:29 22:18:54 25° 265° (W) 22:22:14 145.870
DX 1 30 Jan 22:18:18 22:22:16 33° 263° (W) 22:26:13 434.975-435.025
POPSAT HIP 1 30 Jan 22:19:05 22:20:59 13° 90° (E) 22:23:06 437.405
DUCHIFAT 1 30 Jan 22:20:38 22:22:39 13° 90° (E) 22:24:52 145.980
UNISAT 6 30 Jan 22:21:42 22:25:19 25° 94° (E) 22:28:55 437.425
FUNcube-1 30 Jan 22:24:35 22:28:54 38° 263° (W) 22:33:12 145.935
AISAT 30 Jan 22:50:42 22:54:55 41° 262° (W) 22:59:10 437.250
UWE-3 30 Jan 22:50:53 22:54:09 18° 269° (W) 22:57:15 435.000/436.395/437.385
NANOSAT C BR1 30 Jan 22:54:08 22:58:01 33° 97° (E) 23:01:54 145.865
ANTELSAT 30 Jan 22:57:16 23:01:40 64° 101° (E) 23:05:57 437.575/2403.000
ESTCUBE 1 30 Jan 22:58:42 23:03:12 83° 257° (WSW) 23:07:42 437.505/2401.250
50 SAT 30 Jan 22:59:20 23:03:07 34° 263° (W) 23:06:53 437.505
SPROUT 30 Jan 23:00:26 23:03:41 22° 69° (ENE) 23:07:03 437.525
TIGRISAT 30 Jan 23:03:57 23:08:24 75° 102° (ESE) 23:12:42 435.000
QB50P2 30 Jan 23:09:14 23:13:27 51° 99° (E) 23:17:38 145.880/145.840
QB50P1 30 Jan 23:17:54 23:22:11 64° 101° (E) 23:26:27 145.935-145.965
VELOX 1 30 Jan 23:19:02 23:22:29 21° 267° (W) 23:25:50 145.980
BUGSAT 1 30 Jan 23:20:32 23:24:44 52° 99° (E) 23:28:55 437.445
CUBEBUG 1 30 Jan 23:21:02 23:25:15 49° 261° (W) 23:29:30 437.445
ISS 30 Jan 23:26:22 23:28:01 13° 342° (NNW) 23:29:38 145.825
TISAT 1 30 Jan 23:30:38 23:34:40 46° 74° (ENE) 23:38:47 437.305
POLYITAN 1 30 Jan 23:33:52 23:38:13 81° 284° (WNW) 23:42:29 437.675
AIST 1 30 Jan 23:52:52 23:55:18 14° 273° (W) 23:57:32
POPSAT HIP 1 30 Jan 23:53:05 23:57:15 49° 286° (WNW) 00:01:23 437.405
DUCHIFAT 1 30 Jan 23:54:41 23:58:51 47° 286° (WNW) 00:02:56 145.980
UNISAT 6 30 Jan 23:58:21 00:02:06 26° 290° (WNW) 00:05:41 437.425
GONETS M04 31 Jan 00:18:36 00:25:28 28° 85° (E) 00:32:36
NANOSAT C BR1 31 Jan 00:30:32 00:33:42 20° 292° (WNW) 00:36:45 145.865
SPROUT 31 Jan 00:35:49 00:39:38 30° 264° (W) 00:43:28 437.525
ANTELSAT 31 Jan 00:36:27 00:37:58 11° 296° (WNW) 00:39:14 437.575/2403.000
Oscar 19 31 Jan 00:40:17 00:42:21 13° 88° (E) 00:44:44 437.125/150
SWISSCUBE 31 Jan 00:44:03 00:48:37 48° 73° (ENE) 00:53:13 437.505
BEESAT 3 31 Jan 00:45:08 00:45:56 11° 109° (ESE) 00:46:59 437.485
QB50P2 31 Jan 00:46:45 00:48:59 14° 294° (WNW) 00:51:00 145.880/145.840
O/OREOS (USA 219) 31 Jan 00:51:17 00:53:44 15° 54° (NE) 00:56:23 437.305
KKS-1 31 Jan 00:54:44 00:55:27 10° 64° (ENE) 00:56:25 437.445
QB50P1 31 Jan 00:56:15 00:57:36 11° 295° (WNW) 00:58:41 145.935-145.965
BUGSAT 1 31 Jan 00:57:39 00:59:51 13° 294° (WNW) 01:01:50 437.445
BEESAT 31 Jan 00:59:20 01:04:02 65° 74° (ENE) 01:08:46 436.000
ITUPSAT 1 31 Jan 01:04:21 01:09:05 72° 75° (ENE) 01:13:51 437.325
TISAT 1 31 Jan 01:08:35 01:10:50 14° 270° (W) 01:12:53 437.305
Gurwin Techsat 1B 31 Jan 02:06:41 02:10:42 22° 93° (E) 02:14:51 435.225
BEESAT 2 31 Jan 02:07:18 02:11:24 84° 121° (ESE) 02:15:36 435.950
AIST 2 31 Jan 02:13:10 02:17:04 38° 115° (ESE) 02:21:04 435.215
GONETS M04 31 Jan 02:13:11 02:21:50 59° 282° (WNW) 02:30:25
STARS 31 Jan 02:16:36 02:20:56 54° 74° (ENE) 02:25:19 437.465
M-CUBED/EXP-1 PRIME 31 Jan 02:16:54 02:20:29 33° 69° (ENE) 02:23:51 437.505
Oscar 19 31 Jan 02:17:11 02:22:18 68° 286° (WNW) 02:27:23 437.125/150
BEESAT 3 31 Jan 02:19:33 02:23:36 62° 303° (WNW) 02:27:44 437.485
SWISSCUBE 31 Jan 02:23:49 02:26:49 16° 269° (W) 02:29:38 437.505
KKS-1 31 Jan 02:27:05 02:31:33 75° 258° (WSW) 02:36:04 437.445
O/OREOS (USA 219) 31 Jan 02:29:06 02:33:38 58° 252° (WSW) 02:38:08 437.305
HORYU 2 31 Jan 02:37:15 02:37:46 10° 88° (E) 02:38:35 437.375
ITAMSAT 1 31 Jan 02:37:20 02:42:32 64° 101° (E) 02:47:45 435.822/435.867
CUSAT 1 31 Jan 02:37:57 02:42:36 17° 83° (E) 02:47:49 437.405
BEESAT 31 Jan 02:40:35 02:42:26 12° 271° (W) 02:43:58 436.000
ISS 31 Jan 02:41:06 02:43:18 16° 22° (NNE) 02:45:32 145.825
ITUPSAT 1 31 Jan 02:46:36 02:47:37 10° 272° (W) 02:48:17 437.325
AUBIESAT-1 31 Jan 02:48:06 02:52:05 73° 72° (ENE) 02:55:45 437.475
PCSat 31 Jan 03:05:40 03:09:34 21° 107° (ESE) 03:13:39 145.827
AO-7 31 Jan 03:21:14 03:27:10 22° 92° (E) 03:33:26 29.400- 29.500
Gurwin Techsat 1B 31 Jan 03:45:53 03:50:54 42° 289° (WNW) 03:55:51 435.225
BEESAT 2 31 Jan 03:48:44 03:50:17 12° 319° (NW) 03:51:40 435.950
AIST 2 31 Jan 03:52:29 03:55:50 22° 312° (NW) 03:59:09 435.215
M-CUBED/EXP-1 PRIME 31 Jan 03:52:56 03:55:33 16° 261° (W) 03:57:55 437.505
STARS 31 Jan 03:55:43 03:57:49 13° 270° (W) 03:59:41 437.465
DANDE 31 Jan 03:58:03 04:06:01 57° 93° (E) 04:14:27 436.750
HORYU 2 31 Jan 04:10:34 04:14:58 64° 286° (WNW) 04:19:20 437.375
RS-15 31 Jan 04:13:57 04:24:17 52° 112° (ESE) 04:34:44 29.354- 29.394
CUSAT 1 31 Jan 04:16:29 04:24:44 85° 98° (E) 04:33:09 437.405
ISS 31 Jan 04:16:51 04:20:10 83° 221° (SW) 04:23:27 145.825
ITAMSAT 1 31 Jan 04:18:26 04:21:35 16° 296° (WNW) 04:24:31 435.822/435.867
MOZHAYETS 4 31 Jan 04:20:00 04:24:32 67° 76° (ENE) 04:29:06
JAS-2 31 Jan 04:28:51 04:34:08 34° 97° (E) 04:40:04 435.910
PCSat 31 Jan 04:47:26 04:52:40 49° 303° (WNW) 04:57:57 145.827
AO-7 31 Jan 05:12:29 05:20:48 74° 290° (WNW) 05:29:02 29.400- 29.500
CUTE-I 31 Jan 05:19:23 05:19:28 10° 87° (E) 05:20:00 437.470
PRISM 31 Jan 05:30:18 05:34:04 36° 72° (ENE) 05:37:53 437.425
STRAND 1 31 Jan 05:36:57 05:41:02 26° 68° (ENE) 05:45:14 437.568
DANDE 31 Jan 05:42:24 05:49:54 34° 291° (WNW) 05:57:28 436.750
MOZHAYETS 4 31 Jan 06:01:14 06:02:20 11° 272° (W) 06:03:08
CUSAT 1 31 Jan 06:02:27 06:08:47 22° 296° (WNW) 06:14:44 437.405
JAS-2 31 Jan 06:14:03 06:19:14 34° 290° (WNW) 06:24:52 435.910
CUBESAT XI-V 31 Jan 06:18:11 06:22:47 88° 77° (ENE) 06:27:25 437.345
YUBILEINY 31 Jan 06:22:11 06:30:37 50° 76° (ENE) 06:39:08 435.215
RS-15 31 Jan 06:26:27 06:36:51 46° 314° (NW) 06:47:18 29.354- 29.394
Cubesat XI-IV 31 Jan 06:35:38 06:40:59 63° 101° (E) 06:46:19 437.490
CUTE-I 31 Jan 06:54:58 07:00:23 87° 285° (WNW) 07:05:47 437.470
PRISM 31 Jan 07:07:11 07:09:47 16° 268° (W) 07:12:15 437.425
AO-7 31 Jan 07:07:38 07:12:22 16° 308° (NW) 07:16:39 29.400- 29.500
VERMONT LUNAR 31 Jan 07:08:34 07:11:16 22° 149° (SSE) 07:14:02 437.305
STRAND 1 31 Jan 07:15:26 07:20:06 35° 263° (W) 07:24:46 437.568
